When you browse on this site, cookies collect data to enhance your experience and personalize the content and advertising you see.
Visit our Privacy Policy to learn more. By continuing to use the site, you agree to this use of cookies and data.
  • In Belgien
  • Länderverzeichnis
  • Für 7 Tage
  • Wassertemperatur
  • Satellitenkarten
  • Wetterkarte
  • Widgets
  • user-avatar
    Anmelden

    Stündliche Wetter Korechkino

    Heute, 25 Juni, Dienstag

    Zeit Temperatur Niederschläge Wind Luftdruck Luftfeuchtigkeit
    00:00 +12°C° 0 mm 2 m/S 757 mmHg 74%
    01:00 +10°C° 0 mm 2 m/S 757 mmHg 74%
    02:00 +9°C° 0 mm 2 m/S 757 mmHg 75%
    03:00 +10°C° 0 mm 2 m/S 757 mmHg 74%
    04:00 +12°C° 0 mm 2 m/S 758 mmHg 73%
    05:00 +13°C° 0 mm 2 m/S 758 mmHg 72%
    06:00 +14°C° 0 mm 2 m/S 758 mmHg 67%
    07:00 +16°C° 0 mm 2 m/S 758 mmHg 62%
    08:00 +17°C° 0 mm 2 m/S 758 mmHg 58%
    09:00 +18°C° 0 mm 2 m/S 758 mmHg 52%
    10:00 +20°C° 0 mm 3 m/S 758 mmHg 46%
    11:00 +21°C° 0 mm 3 m/S 758 mmHg 41%
    12:00 +21°C° 0 mm 3 m/S 758 mmHg 41%
    13:00 +21°C° 0 mm 3 m/S 758 mmHg 41%
    14:00 +21°C° 0 mm 3 m/S 758 mmHg 41%
    15:00 +21°C° 0 mm 3 m/S 758 mmHg 45%
    16:00 +20°C° 0 mm 2 m/S 757 mmHg 48%
    17:00 +20°C° 0 mm 2 m/S 757 mmHg 51%
    18:00 +19°C° 0 mm 2 m/S 757 mmHg 57%
    19:00 +18°C° 0 mm 1 m/S 757 mmHg 63%
    20:00 +16°C° 0 mm 1 m/S 757 mmHg 69%
    21:00 +15°C° 0 mm 1 m/S 757 mmHg 71%
    22:00 +15°C° 0 mm 1 m/S 756 mmHg 73%
    23:00 +14°C° 0 mm 1 m/S 756 mmHg 75%

    Morgen, 26 Juni, Mittwoch

    Zeit Temperatur Niederschläge Wind Luftdruck Luftfeuchtigkeit
    00:00 +13°C° 0 mm 2 m/S 756 mmHg 77%
    01:00 +13°C° 0 mm 2 m/S 756 mmHg 79%
    02:00 +12°C° 0 mm 2 m/S 756 mmHg 82%
    03:00 +13°C° 0 mm 2 m/S 755 mmHg 79%
    04:00 +14°C° 0 mm 2 m/S 755 mmHg 75%
    05:00 +14°C° 0 mm 2 m/S 754 mmHg 72%
    06:00 +16°C° 0 mm 2 m/S 754 mmHg 67%
    07:00 +17°C° 0 mm 2 m/S 754 mmHg 62%
    08:00 +18°C° 0 mm 2 m/S 754 mmHg 57%
    09:00 +20°C° 0 mm 2 m/S 753 mmHg 50%
    10:00 +21°C° 0 mm 2 m/S 753 mmHg 43%
    11:00 +23°C° 0 mm 2 m/S 753 mmHg 36%
    12:00 +23°C° 0 mm 2 m/S 752 mmHg 38%
    13:00 +23°C° 0 mm 2 m/S 752 mmHg 39%
    14:00 +23°C° 0 mm 2 m/S 752 mmHg 40%
    15:00 +21°C° 0 mm 3 m/S 751 mmHg 47%
    16:00 +19°C° 0 mm 3 m/S 751 mmHg 54%
    17:00 +18°C° 0 mm 4 m/S 750 mmHg 60%
    18:00 +17°C° 0 mm 3 m/S 750 mmHg 66%
    19:00 +16°C° 0 mm 2 m/S 749 mmHg 72%
    20:00 +14°C° 0 mm 0 m/S 749 mmHg 78%
    21:00 +14°C° 0 mm 1 m/S 748 mmHg 81%
    22:00 +13°C° 0 mm 1 m/S 748 mmHg 85%
    23:00 +12°C° 0 mm 1 m/S 747 mmHg 88%

    übermorgen, 27 Juni, Donnerstag

    Zeit Temperatur Niederschläge Wind Luftdruck Luftfeuchtigkeit
    00:00 +12°C° 0 mm 1 m/S 746 mmHg 88%
    01:00 +12°C° 0 mm 1 m/S 745 mmHg 88%
    02:00 +12°C° 0 mm 2 m/S 745 mmHg 87%
    03:00 +12°C° 0 mm 2 m/S 744 mmHg 88%
    04:00 +12°C° 0 mm 3 m/S 743 mmHg 88%
    05:00 +12°C° 0 mm 3 m/S 742 mmHg 89%
    06:00 +12°C° 0.2 mm 4 m/S 741 mmHg 88%
    07:00 +12°C° 0.2 mm 5 m/S 740 mmHg 88%
    08:00 +13°C° 0.2 mm 6 m/S 739 mmHg 88%
    09:00 +13°C° 0.7 mm 6 m/S 738 mmHg 90%
    10:00 +13°C° 0.7 mm 6 m/S 737 mmHg 91%
    11:00 +13°C° 0.7 mm 6 m/S 736 mmHg 93%
    12:00 +13°C° 0.1 mm 5 m/S 736 mmHg 92%
    13:00 +13°C° 0.1 mm 5 m/S 735 mmHg 92%
    14:00 +13°C° 0.1 mm 5 m/S 734 mmHg 91%
    15:00 +13°C° 0.1 mm 5 m/S 734 mmHg 92%
    16:00 +13°C° 0.1 mm 4 m/S 733 mmHg 92%
    17:00 +13°C° 0.1 mm 4 m/S 733 mmHg 93%
    18:00 +13°C° 0.6 mm 3 m/S 732 mmHg 95%
    19:00 +13°C° 0.6 mm 3 m/S 732 mmHg 96%
    20:00 +14°C° 0.6 mm 2 m/S 732 mmHg 98%
    21:00 +14°C° 1.6 mm 2 m/S 731 mmHg 98%
    22:00 +14°C° 1.6 mm 2 m/S 731 mmHg 98%
    23:00 +14°C° 1.6 mm 2 m/S 731 mmHg 99%

    28 Juni, Freitag

    Zeit Temperatur Niederschläge Wind Luftdruck Luftfeuchtigkeit
    00:00 +14°C° 0.9 mm 2 m/S 730 mmHg 99%
    01:00 +13°C° 0.9 mm 3 m/S 730 mmHg 99%
    02:00 +13°C° 0.9 mm 3 m/S 730 mmHg 99%
    03:00 +13°C° 0.3 mm 3 m/S 729 mmHg 98%
    04:00 +13°C° 0.3 mm 3 m/S 729 mmHg 98%
    05:00 +12°C° 0.3 mm 3 m/S 729 mmHg 98%
    06:00 +12°C° 1.2 mm 4 m/S 729 mmHg 98%
    07:00 +12°C° 1.2 mm 4 m/S 729 mmHg 97%
    08:00 +12°C° 1.2 mm 5 m/S 729 mmHg 97%
    09:00 +10°C° 1.3 mm 5 m/S 729 mmHg 97%
    10:00 +10°C° 1.3 mm 5 m/S 729 mmHg 96%
    11:00 +9°C° 1.3 mm 6 m/S 729 mmHg 96%
    12:00 +9°C° 0.7 mm 6 m/S 729 mmHg 96%
    13:00 +9°C° 0.7 mm 6 m/S 729 mmHg 96%
    14:00 +9°C° 0.7 mm 6 m/S 729 mmHg 96%
    15:00 +9°C° 1.1 mm 6 m/S 730 mmHg 96%
    16:00 +9°C° 1.1 mm 6 m/S 730 mmHg 95%
    17:00 +9°C° 1.1 mm 7 m/S 730 mmHg 95%
    18:00 +9°C° 1.5 mm 7 m/S 730 mmHg 95%
    19:00 +9°C° 1.5 mm 7 m/S 730 mmHg 96%
    20:00 +8°C° 1.5 mm 7 m/S 730 mmHg 96%
    21:00 +8°C° 2.2 mm 7 m/S 730 mmHg 96%
    22:00 +8°C° 2.2 mm 7 m/S 731 mmHg 96%
    23:00 +8°C° 2.2 mm 7 m/S 731 mmHg 96%

    29 Juni, Samstag

    Zeit Temperatur Niederschläge Wind Luftdruck Luftfeuchtigkeit
    00:00 +8°C° 1.2 mm 7 m/S 730 mmHg 96%
    01:00 +8°C° 1.2 mm 7 m/S 730 mmHg 96%
    02:00 +8°C° 1.2 mm 6 m/S 730 mmHg 96%
    03:00 +6°C° 1.9 mm 7 m/S 731 mmHg 96%
    04:00 +6°C° 1.9 mm 7 m/S 731 mmHg 96%
    05:00 +6°C° 1.9 mm 7 m/S 731 mmHg 96%
    06:00 +6°C° 0.9 mm 7 m/S 731 mmHg 96%
    07:00 +6°C° 0.9 mm 7 m/S 732 mmHg 96%
    08:00 +6°C° 0.9 mm 7 m/S 732 mmHg 96%
    09:00 +6°C° 0.5 mm 7 m/S 733 mmHg 96%
    10:00 +5°C° 0.5 mm 6 m/S 734 mmHg 95%
    11:00 +5°C° 0.5 mm 6 m/S 734 mmHg 95%
    12:00 +5°C° 0.2 mm 6 m/S 735 mmHg 94%
    13:00 +5°C° 0.2 mm 6 m/S 736 mmHg 93%
    14:00 +5°C° 0.2 mm 6 m/S 736 mmHg 93%
    15:00 +7°C° 0 mm 6 m/S 737 mmHg 88%
    16:00 +7°C° 0 mm 5 m/S 737 mmHg 84%
    17:00 +8°C° 0 mm 5 m/S 738 mmHg 79%
    18:00 +8°C° 0 mm 4 m/S 738 mmHg 77%
    19:00 +9°C° 0 mm 3 m/S 739 mmHg 75%
    20:00 +10°C° 0 mm 2 m/S 739 mmHg 73%
    21:00 +9°C° 0 mm 2 m/S 739 mmHg 77%
    22:00 +8°C° 0 mm 2 m/S 740 mmHg 81%
    23:00 +6°C° 0 mm 2 m/S 740 mmHg 85%

    30 Juni, Sonntag

    Zeit Temperatur Niederschläge Wind Luftdruck Luftfeuchtigkeit
    00:00 +6°C° 0 mm 2 m/S 740 mmHg 87%
    01:00 +6°C° 0 mm 2 m/S 740 mmHg 88%
    02:00 +5°C° 0 mm 2 m/S 741 mmHg 90%
    03:00 +6°C° 0 mm 2 m/S 741 mmHg 83%
    04:00 +7°C° 0 mm 2 m/S 741 mmHg 77%
    05:00 +8°C° 0 mm 3 m/S 741 mmHg 70%
    06:00 +10°C° 0 mm 3 m/S 742 mmHg 63%
    07:00 +12°C° 0 mm 3 m/S 742 mmHg 55%
    08:00 +14°C° 0 mm 3 m/S 742 mmHg 48%
    09:00 +15°C° 0 mm 4 m/S 742 mmHg 45%
    10:00 +17°C° 0 mm 4 m/S 743 mmHg 42%
    11:00 +18°C° 0 mm 4 m/S 743 mmHg 40%
    12:00 +19°C° 0 mm 4 m/S 743 mmHg 39%
    13:00 +20°C° 0 mm 4 m/S 743 mmHg 39%
    14:00 +20°C° 0 mm 4 m/S 743 mmHg 39%
    15:00 +20°C° 0 mm 3 m/S 744 mmHg 41%
    16:00 +20°C° 0 mm 3 m/S 744 mmHg 43%
    17:00 +20°C° 0 mm 2 m/S 744 mmHg 45%
    18:00 +18°C° 0 mm 2 m/S 744 mmHg 53%
    19:00 +16°C° 0 mm 1 m/S 745 mmHg 62%
    20:00 +14°C° 0 mm 1 m/S 745 mmHg 71%
    21:00 +12°C° 0 mm 0 m/S 745 mmHg 73%
    22:00 +10°C° 0 mm 0 m/S 745 mmHg 76%
    23:00 +9°C° 0 mm 0 m/S 745 mmHg 78%
    Mehr zeigen